EW3714 Weather Reports


Display with metric or nautical units.
time (UTC)temp
F
wind
direction
speed
MPH
gust
MPH
rain 1hr
in
rain 24hr
in
rain mn
in
humidity
%
barometer
mb
20260904024313 83 233 0.0 1.0 0.00 0.00 0.00 72 1013.5
20260904023810 84 26 1.0 2.0 0.00 0.00 0.00 72 1013.4
20260904023306 84 310 0.0 1.0 0.00 0.00 0.00 71 1013.2
20260904022805 84 154 0.0 2.0 0.00 0.00 0.00 71 1013.2
20260904022305 84 213 1.0 1.0 0.00 0.00 0.00 70 1013.2
20260904021759 84 44 0.0 1.0 0.00 0.00 0.00 70 1013.2
20260904021258 84 75 0.0 2.0 0.00 0.00 0.00 70 1013.3
20260904020754 84 15 0.0 3.0 0.00 0.00 0.00 69 1013.3
20260904020254 84 195 0.0 1.0 0.00 0.00 0.00 68 1012.9
20260904015752 85 44 0.0 2.0 0.00 0.00 0.00 68 1013.0
20260904015248 85 353 2.0 2.0 0.00 0.00 0.00 68 1013.0
20260904014746 85 16 0.0 2.0 0.00 0.00 0.00 67 1012.7
20260904014242 85 315 0.0 2.0 0.00 0.00 0.00 66 1012.6
20260904013738 86 295 1.0 3.0 0.00 0.00 0.00 66 1012.5
20260904013234 86 298 1.0 2.0 0.00 0.00 0.00 65 1012.5
20260904012729 86 110 0.0 2.0 0.00 0.00 0.00 66 1012.3
20260904012228 86 229 0.0 2.0 0.00 0.00 0.00 64 1012.2
20260904011728 86 254 0.0 1.0 0.00 0.00 0.00 64 1012.2
20260904011224 86 299 0.0 2.0 0.00 0.00 0.00 65 1012.2
20260904010718 86 217 0.0 1.0 0.00 0.00 0.00 64 1012.1
20260904010215 87 321 0.0 1.0 0.00 0.00 0.00 64 1012.2
20260904005710 87 22 0.0 2.0 0.00 0.00 0.00 64 1012.4
20260904005206 87 357 0.0 1.0 0.00 0.00 0.00 64 1012.3
20260904004706 87 335 0.0 1.0 0.00 0.00 0.00 63 1012.4
20260904004201 87 191 2.0 2.0 0.00 0.00 0.00 64 1012.3
20260904003656 87 217 0.0 2.0 0.00 0.00 0.00 63 1012.4
20260904003153 88 327 0.0 2.0 0.00 0.00 0.00 63 1012.3
20260904002648 88 219 0.0 3.0 0.00 0.00 0.00 62 1012.2
20260904002143 88 341 0.0 2.0 0.00 0.00 0.00 62 1012.4
20260904001638 89 258 3.0 3.0 0.00 0.00 0.00 61 1012.3
20260904001137 89 309 0.0 2.0 0.00 0.00 0.00 61 1012.0
20260904000633 89 337 0.0 3.0 0.00 0.00 0.00 60 1012.3
20260904000128 90 18 0.0 2.0 0.00 0.00 0.00 60 1012.3
20260903235628 90 356 2.0 2.0 0.00 0.00 0.00 60 1012.2
20260903235124 91 8 0.0 2.0 0.00 0.00 0.00 60 1012.0
20260903234618 91 4 0.0 2.0 0.00 0.00 0.00 60 1012.2
20260903234114 91 11 1.0 2.0 0.00 0.00 0.00 59 1011.9
20260903233611 91 204 2.0 3.0 0.00 0.00 0.00 60 1012.1
20260903233106 91 246 0.0 1.0 0.00 0.00 0.00 61 1011.9
20260903232601 91 272 0.0 2.0 0.00 0.00 0.00 60 1011.9
20260903232056 91 344 0.0 2.0 0.00 0.00 0.00 61 1011.9
20260903231545 91 212 0.0 4.0 0.00 0.00 0.00 61 1011.9
20260903231045 91 269 0.0 2.0 0.00 0.00 0.00 60 1011.9
20260903230541 92 333 0.0 2.0 0.00 0.00 0.00 59 1011.7
20260903230039 93 51 0.0 2.0 0.00 0.00 0.00 59 1011.5
20260903225537 93 330 1.0 2.0 0.00 0.00 0.00 58 1011.6
20260903225034 94 222 1.0 2.0 0.00 0.00 0.00 57 1011.7
20260903224530 95 34 1.0 2.0 0.00 0.00 0.00 57 1011.5
20260903224025 96 227 3.0 3.0 0.00 0.00 0.00 55 1011.4
20260903223525 96 174 0.0 2.0 0.00 0.00 0.00 49 1011.3
20260903223024 97 234 0.0 2.0 0.00 0.00 0.00 49 1011.1
20260903222519 97 15 2.0 2.0 0.00 0.00 0.00 48 1011.2
20260903222018 97 357 1.0 2.0 0.00 0.00 0.00 51 1011.2
20260903221514 97 5 1.0 2.0 0.00 0.00 0.00 51 1011.1
20260903221011 98 323 0.0 2.0 0.00 0.00 0.00 49 1011.1
20260903220510 98 316 0.0 2.0 0.00 0.00 0.00 49 1011.1
20260903220010 98 228 2.0 2.0 0.00 0.00 0.00 48 1011.2
20260903215504 98 203 0.0 4.0 0.00 0.00 0.00 49 1011.1
20260903215003 98 304 0.0 1.0 0.00 0.00 0.00 49 1011.3
20260903214458 98 17 0.0 2.0 0.00 0.00 0.00 50 1011.2
20260903213958 99 3 2.0 2.0 0.00 0.00 0.00 48 1011.4
20260903213454 99 336 0.0 2.0 0.00 0.00 0.00 47 1011.4
20260903212949 99 296 1.0 2.0 0.00 0.00 0.00 46 1011.2
20260903212445 99 321 0.0 2.0 0.00 0.00 0.00 47 1011.4
20260903211945 99 208 0.0 3.0 0.00 0.00 0.00 46 1011.4
20260903211446 99 29 2.0 2.0 0.00 0.00 0.00 46 1011.4
20260903210943 98 357 0.0 2.0 0.00 0.00 0.00 46 1011.4
20260903210442 99 313 1.0 2.0 0.00 0.00 0.00 46 1011.5
20260903205937 99 0 0.0 2.0 0.00 0.00 0.00 46 1011.7
20260903205432 99 316 0.0 2.0 0.00 0.00 0.00 46 1011.6
20260903204926 100 332 1.0 2.0 0.00 0.00 0.00 45 1011.7
20260903204423 101 311 1.0 2.0 0.00 0.00 0.00 44 1011.8
20260903203918 102 18 0.0 3.0 0.00 0.00 0.00 44 1011.8
20260903203414 102 195 0.0 2.0 0.00 0.00 0.00 43 1011.8
20260903202913 101 349 2.0 2.0 0.00 0.00 0.00 44 1012.1
20260903202409 102 22 1.0 2.0 0.00 0.00 0.00 43 1012.1
20260903201909 102 11 0.0 3.0 0.00 0.00 0.00 42 1012.1
20260903201405 104 251 0.0 3.0 0.00 0.00 0.00 41 1012.1
20260903200903 104 314 0.0 2.0 0.00 0.00 0.00 40 1012.1
20260903200358 101 350 0.0 1.0 0.00 0.00 0.00 45 1012.2
20260903195853 101 223 2.0 3.0 0.00 0.00 0.00 44 1012.2
20260903195349 101 287 0.0 2.0 0.00 0.00 0.00 44 1012.0
20260903194844 103 218 1.0 2.0 0.00 0.00 0.00 41 1012.3
20260903194339 103 106 0.0 4.0 0.00 0.00 0.00 42 1012.3
20260903193835 104 311 2.0 2.0 0.00 0.00 0.00 41 1012.4
20260903193331 103 93 0.0 3.0 0.00 0.00 0.00 41 1012.5
20260903192826 106 87 2.0 2.0 0.00 0.00 0.00 40 1012.4
20260903192322 104 284 1.0 3.0 0.00 0.00 0.00 41 1012.6
20260903191818 104 228 0.0 2.0 0.00 0.00 0.00 41 1012.7
20260903191314 104 331 1.0 2.0 0.00 0.00 0.00 41 1012.8
20260903190813 102 349 1.0 3.0 0.00 0.00 0.00 42 1012.9
20260903190309 102 34 2.0 2.0 0.00 0.00 0.00 44 1012.9
20260903185808 100 208 0.0 2.0 0.00 0.00 0.00 45 1013.2
20260903185309 103 269 0.0 2.0 0.00 0.00 0.00 42 1013.2
20260903184805 103 11 1.0 2.0 0.00 0.00 0.00 43 1013.2
20260903184301 101 319 2.0 2.0 0.00 0.00 0.00 43 1013.4
20260903183756 101 209 1.0 2.0 0.00 0.00 0.00 44 1013.3
20260903183250 102 284 0.0 2.0 0.00 0.00 0.00 43 1013.5
20260903182749 101 218 0.0 1.0 0.00 0.00 0.00 46 1013.7
20260903182244 98 218 0.0 1.0 0.00 0.00 0.00 49 1013.8
20260903181743 97 37 0.0 2.0 0.00 0.00 0.00 50 1013.8
20260903181238 97 311 1.0 1.0 0.00 0.00 0.00 49 1014.0
20260903180733 96 242 0.0 3.0 0.00 0.00 0.00 51 1013.9
20260903180233 95 195 0.0 0.0 0.00 0.00 0.00 51 1014.0
20260903175732 95 0 0.0 3.0 0.00 0.00 0.00 50 1014.2
20260903175232 96 356 2.0 2.0 0.00 0.00 0.00 51 1014.1
20260903174731 96 47 0.0 2.0 0.00 0.00 0.00 51 1014.0
20260903174227 98 337 1.0 4.0 0.00 0.00 0.00 50 1013.9
20260903173722 97 287 0.0 3.0 0.00 0.00 0.00 49 1013.9
20260903173218 98 37 0.0 4.0 0.00 0.00 0.00 49 1014.2
20260903172717 97 124 0.0 4.0 0.00 0.00 0.00 51 1014.1
20260903172213 97 17 0.0 2.0 0.00 0.00 0.00 52 1014.2
20260903171708 96 353 1.0 2.0 0.00 0.00 0.00 53 1014.2
20260903171204 95 95 2.0 2.0 0.00 0.00 0.00 53 1014.3
20260903170702 95 201 1.0 2.0 0.00 0.00 0.00 53 1014.3
20260903170158 95 11 1.0 3.0 0.00 0.00 0.00 55 1014.3
20260903165655 94 28 1.0 2.0 0.00 0.00 0.00 57 1014.2
20260903165151 93 44 0.0 1.0 0.00 0.00 0.00 60 1014.4
20260903164645 92 235 0.0 2.0 0.00 0.00 0.00 61 1014.2
20260903164142 92 26 0.0 1.0 0.00 0.00 0.00 62 1014.4
20260903163636 91 338 0.0 2.0 0.00 0.00 0.00 61 1014.4
20260903163132 91 221 1.0 2.0 0.00 0.00 0.00 61 1014.4
20260903162628 90 57 2.0 3.0 0.00 0.00 0.00 62 1014.5
20260903162124 90 103 0.0 2.0 0.00 0.00 0.00 62 1014.5
20260903161624 90 216 0.0 2.0 0.00 0.00 0.00 63 1014.5
20260903161120 89 322 0.0 1.0 0.00 0.00 0.00 65 1014.5
20260903160615 89 10 0.0 4.0 0.00 0.00 0.00 64 1014.6
20260903160109 89 30 3.0 3.0 0.00 0.00 0.00 66 1014.3
20260903155608 88 284 0.0 2.0 0.00 0.00 0.00 66 1014.4
20260903155103 88 59 0.0 3.0 0.00 0.00 0.00 66 1014.3
20260903154559 88 21 2.0 2.0 0.00 0.00 0.00 68 1014.5
20260903154055 88 0 0.0 2.0 0.00 0.00 0.00 67 1014.5
20260903153550 87 163 0.0 3.0 0.00 0.00 0.00 68 1014.5
20260903153046 87 195 1.0 2.0 0.00 0.00 0.00 69 1014.5
20260903152542 87 272 1.0 2.0 0.00 0.00 0.00 68 1014.6
20260903152038 87 263 1.0 2.0 0.00 0.00 0.00 69 1014.5
20260903151537 87 33 1.0 3.0 0.00 0.00 0.00 69 1014.4
20260903151033 86 13 2.0 3.0 0.00 0.00 0.00 69 1014.6
20260903150532 86 131 1.0 6.0 0.00 0.00 0.00 70 1014.3
20260903150028 86 252 0.0 2.0 0.00 0.00 0.00 71 1014.5
20260903145527 85 200 0.0 2.0 0.00 0.00 0.00 72 1014.5
20260903145023 85 176 0.0 6.0 0.00 0.00 0.00 73 1014.5
20260903144522 85 40 1.0 2.0 0.00 0.00 0.00 74 1014.4
20260903144018 84 34 0.0 5.0 0.00 0.00 0.00 75 1014.3
20260903143514 84 121 1.0 3.0 0.00 0.00 0.00 74 1014.8
20260903143010 84 117 0.0 3.0 0.00 0.00 0.00 76 1014.6
20260903142505 84 57 0.0 2.0 0.00 0.00 0.00 76 1014.5
20260903142001 84 81 1.0 2.0 0.00 0.00 0.00 76 1014.5
20260903141456 84 302 1.0 5.0 0.00 0.00 0.00 76 1014.6
20260903140952 84 117 3.0 3.0 0.00 0.00 0.00 77 1014.6
20260903140448 83 57 1.0 2.0 0.00 0.00 0.00 78 1014.5
20260903135942 83 56 1.0 3.0 0.00 0.00 0.00 79 1014.5
20260903135438 83 125 1.0 3.0 0.00 0.00 0.00 79 1014.3
20260903134933 83 70 0.0 4.0 0.00 0.00 0.00 79 1014.4
20260903134431 83 39 2.0 2.0 0.00 0.00 0.00 80 1014.5
20260903133929 82 1 1.0 3.0 0.00 0.00 0.00 81 1014.6
20260903133426 82 24 3.0 3.0 0.00 0.00 0.00 82 1014.6
20260903132921 82 315 0.0 2.0 0.00 0.00 0.00 82 1014.6
20260903132416 82 92 1.0 2.0 0.00 0.00 0.00 83 1014.3
20260903131916 82 281 0.0 4.0 0.00 0.00 0.00 82 1014.6
20260903131416 82 41 1.0 3.0 0.00 0.00 0.00 83 1014.5
20260903130915 81 37 0.0 1.0 0.00 0.00 0.00 84 1014.5
20260903130411 81 153 0.0 2.0 0.00 0.00 0.00 84 1014.5
20260903125909 81 33 0.0 5.0 0.00 0.00 0.00 84 1014.6
20260903125404 81 59 2.0 4.0 0.00 0.00 0.00 84 1014.5
20260903124903 81 31 0.0 2.0 0.00 0.00 0.00 85 1014.5
20260903124359 81 230 0.0 2.0 0.00 0.00 0.00 85 1014.5
20260903123857 81 306 0.0 2.0 0.00 0.00 0.00 86 1014.4
20260903123352 81 54 2.0 4.0 0.00 0.00 0.00 86 1014.5
20260903122851 81 323 0.0 1.0 0.00 0.00 0.00 87 1014.3
20260903122346 81 61 1.0 1.0 0.00 0.00 0.00 86 1014.3
20260903121845 80 33 1.0 3.0 0.00 0.00 0.00 86 1014.1
20260903121340 80 328 0.0 2.0 0.00 0.00 0.00 86 1014.2
20260903120836 80 113 0.0 1.0 0.00 0.00 0.00 87 1014.1
20260903120335 80 205 0.0 2.0 0.00 0.00 0.00 86 1014.2
20260903115833 80 41 0.0 2.0 0.00 0.00 0.00 87 1014.2
20260903115328 80 330 0.0 3.0 0.00 0.00 0.00 86 1014.1
20260903114828 81 171 1.0 2.0 0.00 0.00 0.00 87 1014.1
20260903114324 81 41 2.0 3.0 0.00 0.00 0.00 87 1014.2
20260903113819 80 340 0.0 3.0 0.00 0.00 0.00 87 1014.0
20260903113315 80 246 0.0 2.0 0.00 0.00 0.00 86 1014.0
20260903112810 80 51 2.0 2.0 0.00 0.00 0.00 87 1014.1
20260903112306 80 205 1.0 2.0 0.00 0.00 0.00 87 1014.0
20260903111805 80 12 0.0 2.0 0.00 0.00 0.00 87 1013.9
20260903111300 81 41 1.0 2.0 0.00 0.00 0.00 87 1013.9
20260903110756 80 269 0.0 3.0 0.00 0.00 0.00 87 1013.8
20260903110251 80 259 0.0 3.0 0.00 0.00 0.00 87 1013.9
20260903105751 80 180 1.0 4.0 0.00 0.00 0.00 87 1013.8
20260903105246 81 89 0.0 2.0 0.00 0.00 0.00 86 1013.9
20260903104746 81 314 1.0 3.0 0.00 0.00 0.00 87 1013.7
20260903104241 81 180 0.0 4.0 0.00 0.00 0.00 87 1013.8
20260903103736 81 82 0.0 2.0 0.00 0.00 0.00 86 1013.6
20260903103233 81 37 0.0 2.0 0.00 0.00 0.00 87 1013.7
20260903102729 81 10 1.0 2.0 0.00 0.00 0.00 87 1013.7
20260903102228 81 352 0.0 2.0 0.00 0.00 0.00 86 1013.6
20260903101727 81 137 1.0 2.0 0.00 0.00 0.00 86 1013.6
20260903101223 81 322 0.0 3.0 0.00 0.00 0.00 87 1013.7
20260903100724 81 25 0.0 2.0 0.00 0.00 0.00 87 1013.5
20260903100223 80 155 0.0 2.0 0.00 0.00 0.00 87 1013.6
20260903095721 80 25 0.0 3.0 0.00 0.00 0.00 87 1013.7
20260903095216 80 33 2.0 2.0 0.00 0.00 0.00 86 1013.7
20260903094711 80 322 0.0 1.0 0.00 0.00 0.00 87 1013.8
20260903094206 81 205 0.0 2.0 0.00 0.00 0.00 87 1013.8
20260903093702 81 84 1.0 3.0 0.00 0.00 0.00 87 1013.7
20260903093157 81 356 1.0 2.0 0.00 0.00 0.00 86 1013.8
20260903092656 81 141 0.0 2.0 0.00 0.00 0.00 85 1013.7
20260903092151 81 37 0.0 1.0 0.00 0.00 0.00 85 1013.8
20260903091650 81 30 2.0 2.0 0.00 0.00 0.00 85 1013.9
20260903091150 81 142 0.0 1.0 0.00 0.00 0.00 85 1013.8
20260903090646 81 353 2.0 2.0 0.00 0.00 0.00 84 1014.0
20260903090144 81 195 0.0 1.0 0.00 0.00 0.00 84 1014.1
20260903085643 81 145 0.0 2.0 0.00 0.00 0.00 84 1014.1
20260903085139 81 34 1.0 2.0 0.00 0.00 0.00 84 1014.0
20260903084636 81 322 0.0 2.0 0.00 0.00 0.00 83 1013.9
20260903084131 81 11 0.0 2.0 0.00 0.00 0.00 83 1014.1
20260903083627 82 326 0.0 2.0 0.00 0.00 0.00 83 1013.8
20260903083122 82 44 0.0 2.0 0.00 0.00 0.00 83 1014.0
20260903082621 82 44 0.0 2.0 0.00 0.00 0.00 83 1014.1
20260903082118 82 171 0.0 2.0 0.00 0.00 0.00 82 1014.1
20260903081612 82 11 1.0 3.0 0.00 0.00 0.00 83 1013.8
20260903081108 82 125 2.0 3.0 0.00 0.00 0.00 82 1014.0
20260903080604 82 122 2.0 2.0 0.00 0.00 0.00 82 1014.0
20260903075555 82 46 1.0 2.0 0.00 0.00 0.00 81 1014.0
20260903075050 82 30 2.0 3.0 0.00 0.00 0.00 80 1014.1
20260903074550 82 35 1.0 3.0 0.00 0.00 0.00 80 1014.0
20260903074049 82 23 2.0 2.0 0.00 0.00 0.00 80 1014.0
20260903073545 82 52 2.0 2.0 0.00 0.00 0.00 80 1014.1
20260903073041 82 53 0.0 2.0 0.00 0.00 0.00 80 1014.1
20260903072536 82 36 2.0 3.0 0.00 0.00 0.00 79 1014.3
20260903072033 82 37 1.0 2.0 0.00 0.00 0.00 80 1014.2
20260903071529 82 333 0.0 1.0 0.00 0.00 0.00 78 1014.3
20260903071024 82 265 0.0 2.0 0.00 0.00 0.00 78 1014.2
20260903070524 83 43 2.0 4.0 0.00 0.00 0.00 78 1014.2
20260903070020 83 36 1.0 2.0 0.00 0.00 0.00 77 1014.2
20260903065519 83 17 2.0 2.0 0.00 0.00 0.00 77 1014.2
20260903065019 83 28 0.0 2.0 0.00 0.00 0.00 76 1014.3
20260903064519 83 332 0.0 2.0 0.00 0.00 0.00 76 1014.2
20260903064014 83 320 0.0 2.0 0.00 0.00 0.00 75 1014.2
20260903063510 83 32 2.0 2.0 0.00 0.00 0.00 75 1014.4
20260903063005 83 246 1.0 3.0 0.00 0.00 0.00 74 1014.4
20260903062500 83 58 0.0 2.0 0.00 0.00 0.00 74 1014.5
20260903061955 83 294 0.0 4.0 0.00 0.00 0.00 73 1014.3
20260903061450 84 269 0.0 2.0 0.00 0.00 0.00 72 1014.3
20260903060946 84 299 0.0 2.0 0.00 0.00 0.00 71 1014.3
20260903060445 84 51 0.0 3.0 0.00 0.00 0.00 72 1014.3
20260903055944 84 214 2.0 3.0 0.00 0.00 0.00 70 1014.4
20260903055443 84 355 0.0 1.0 0.00 0.00 0.00 69 1014.2
20260903054942 84 324 1.0 3.0 0.00 0.00 0.00 69 1014.2
20260903054437 84 352 0.0 3.0 0.00 0.00 0.00 68 1014.3
20260903053933 84 199 1.0 9.0 0.00 0.00 0.00 67 1014.3
20260903053433 84 16 0.0 2.0 0.00 0.00 0.00 67 1014.4
20260903052929 84 325 0.0 2.0 0.00 0.00 0.00 67 1014.3
20260903052425 84 32 0.0 2.0 0.00 0.00 0.00 68 1014.2
20260903051921 84 218 0.0 2.0 0.00 0.00 0.00 68 1014.2
20260903051416 84 50 0.0 2.0 0.00 0.00 0.00 68 1014.3
20260903050911 84 4 0.0 2.0 0.00 0.00 0.00 68 1014.1
20260903050410 84 66 0.0 0.0 0.00 0.00 0.00 68 1014.4
20260903045905 84 234 1.0 1.0 0.00 0.00 0.00 68 1014.2
20260903045400 84 297 0.0 3.0 0.00 0.00 0.00 69 1014.2
20260903044857 85 180 0.0 1.0 0.00 0.00 0.00 68 1014.2
20260903044357 85 333 0.0 0.0 0.00 0.00 0.00 68 1014.1
20260903043855 84 99 0.0 2.0 0.00 0.00 0.00 68 1014.3
20260903043355 85 15 0.0 1.0 0.00 0.00 0.00 69 1014.3
20260903042853 85 24 0.0 1.0 0.00 0.00 0.00 69 1014.1
20260903042349 85 157 0.0 2.0 0.00 0.00 0.00 68 1014.2
20260903041845 85 234 0.0 2.0 0.00 0.00 0.00 68 1014.1
20260903041341 85 217 0.0 0.0 0.00 0.00 0.00 68 1014.2
20260903040836 85 281 0.0 0.0 0.00 0.00 0.00 68 1014.2
20260903040335 85 15 0.0 1.0 0.00 0.00 0.00 67 1014.0
20260903035832 85 322 0.0 0.0 0.00 0.00 0.00 66 1014.0
20260903035326 85 347 0.0 1.0 0.00 0.00 0.00 66 1014.0
20260903034822 86 62 0.0 2.0 0.00 0.00 0.00 66 1014.1
20260903034316 86 246 0.0 1.0 0.00 0.00 0.00 65 1014.0
20260903033812 86 345 0.0 1.0 0.00 0.00 0.00 64 1013.9
20260903033307 86 44 0.0 1.0 0.00 0.00 0.00 65 1014.1
20260903032807 87 38 0.0 2.0 0.00 0.00 0.00 63 1014.1
20260903032305 87 173 0.0 1.0 0.00 0.00 0.00 61 1014.0
20260903031758 88 309 0.0 1.0 0.00 0.00 0.00 59 1013.9
20260903031257 89 29 0.0 0.0 0.00 0.00 0.00 59 1013.7
20260903030753 89 217 0.0 0.0 0.00 0.00 0.00 57 1013.5
20260903030249 89 69 0.0 0.0 0.00 0.00 0.00 57 1013.5
20260903025750 89 6 0.0 2.0 0.00 0.00 0.00 56 1013.2
20260903025245 89 22 0.0 2.0 0.00 0.00 0.00 56 1013.3
20260903024740 90 320 0.0 2.0 0.00 0.00 0.00 55 1013.2